SCP
0 0 0 0 0 0 0 0 0 0 1 1 1 1 2 1 1 1 1 1 2 2 2 2 2 1 1 2 2 2 2 2 2 2 2 2 2 2 2 2 2 2 2 2 2 2 2 2 2
0 0 0 0 0 0 0 0 0 1 1 1 2 2 2 2 1 1 1 2 2 2 2 2 2 2 2 2 2 2 2 2 2 2 2 2 2 2 2 2 2 2 2 2 2 2 2 2 2
0 0 0 0 0 0 0 0 1 1 1 1 2 2 2 2 1 1 2 2 2 2 2 3 3 2 2 2 2 2 2 3 3 3 2 2 2 2 2 2 2 2 2 2 2 2 2 2 2
0 0 0 0 0 0 0 1 1 1 1 1 2 2 2 1 1 1 2 2 2 2 2 3 3 3 2 2 2 3 2 2 2 2 2 2 2 2 2 2 2 2 2 2 2 2 2 2 2
0 0 0 0 0 0 1 1 1 2 2 2 2 2 2 1 1 2 2 2 2 2 2 3 3 3 3 3 3 3 3 3 2 2 2 2 2 2 2 2 2 2 2 1 1 1 1 2 2
0 0 0 0 1 1 1 1 2 2 2 2 2 2 2 2 2 2 2 2 2 2 2 3 3 3 3 3 3 3 3 3 3 2 2 2 2 2 2 2 2 2 2 2 2 2 2 2 2
0 0 0 0 1 1 1 2 2 2 2 2 3 3 2 2 2 2 2 2 1 1 2 2 3 3 3 3 3 4 3 3 3 2 2 2 2 2 2 2 2 2 2 3 2 2 3 3 3
0 0 0 0 1 1 1 2 2 2 2 2 2 2 2 2 2 2 2 2 1 1 1 1 2 2 2 3 3 4 3 3 2 2 2 2 2 2 2 2 2 3 3 3 3 3 3 3 3
0 0 0 0 1 1 1 2 2 2 2 2 2 2 2 2 2 3 3 2 2 1 1 1 1 1 2 2 2 3 3 2 2 2 2 1 1 1 1 2 2 3 3 3 3 3 3 3 2
0 0 1 1 1 1 1 2 2 2 2 2 2 2 2 3 3 3 3 2 2 2 1 1 1 2 2 2 2 2 2 2 2 2 1 1 1 1 1 1 2 2 2 2 2 2 2 2 2
1 1 1 1 1 2 2 2 2 2 2 2 2 3 3 3 3 2 2 2 2 1 1 1 1 2 4 4 3 2 1 2 2 2 2 1 1 1 1 1 1 1 1 1 2 2 1 1 2
1 1 2 2 2 2 2 3 3 3 2 2 2 3 4 4 3 2 2 2 2 1 1 1 1 2 4 4 3 2 2 2 2 2 2 2 1 1 1 1 1 2 1 1 1 1 1 1 2
1 1 2 2 2 2 3 3 4 3 3 3 3 4 5 4 3 3 3 3 2 2 1 1 1 2 2 3 3 2 2 2 2 2 2 2 1 1 1 1 2 2 2 1 1 1 1 1 1
1 1 1 2 2 2 3 4 4 4 3 4 4 5 5 4 4 3 3 2 2 1 1 1 1 1 2 2 2 2 2 1 1 2 2 2 2 2 2 2 2 2 2 2 1 1 1 1 1
1 1 1 2 2 2 3 4 4 3 3 4 5 6 5 5 4 3 2 2 1 1 1 1 1 1 1 1 2 2 1 1 1 1 1 1 2 2 2 2 2 2 2 1 1 1 1 1 1
1 1 1 2 2 2 3 4 4 3 4 5 6 6 5 4 4 3 2 1 1 1 1 1 1 1 1 1 1 1 1 1 1 1 1 1 1 2 2 2 2 2 2 1 1 1 1 1 1
1 1 1 1 2 2 3 3 3 3 3 4 5 5 5 4 4 3 2 2 2 2 2 2 1 1 1 1 1 1 1 1 1 1 1 1 2 2 2 2 1 1 1 1 1 1 1 1 1
0 0 1 1 2 2 3 3 2 2 2 3 4 5 5 4 4 3 3 3 3 2 2 2 2 1 1 1 1 1 0 0 1 1 2 2 2 2 2 1 1 1 1 1 1 1 1 1 1
0 0 1 1 1 2 2 2 2 2 2 3 4 4 4 4 3 2 2 3 3 3 2 2 2 1 1 1 0 0 0 0 0 1 1 2 2 2 1 1 1 1 1 1 1 1 1 1 1
0 0 0 1 1 2 2 2 3 3 2 3 3 3 3 3 2 2 2 3 3 3 3 2 2 1 1 1 1 0 0 0 0 0 0 1 1 1 1 0 0 0 0 0 1 1 1 1 1
0 0 0 0 1 1 2 2 2 2 2 2 2 2 2 2 2 3 3 3 3 3 3 2 1 1 1 1 1 1 0 0 0 0 0 0 1 0 0 0 0 0 0 0 0 1 1 0 0
0 0 0 0 0 1 1 1 2 2 2 2 2 2 2 3 3 3 3 2 3 3 3 2 1 1 1 1 1 1 0 0 0 0 0 0 0 0 0 0 0 0 0 0 0 0 0 0 0
0 0 0 0 0 0 1 1 1 2 2 2 2 2 3 3 3 3 3 3 3 3 3 2 1 1 2 2 1 1 0 0 0 0 0 0 0 0 0 0 0 0 0 0 0 0 0 0 0
0 0 0 0 0 0 0 0 1 1 2 2 2 2 2 3 3 3 3 3 3 2 2 1 1 1 1 1 1 1 0 0 0 0 0 0 0 0 0 0 0 0 0 0 0 0 0 0 0
0 0 0 0 0 0 0 0 0 1 1 2 2 2 2 2 3 3 2 2 2 1 1 1 0 0 0 1 1 0 0 0 0 0 0 0 0 0 0 0 0 0 0 0 0 0 0 0 0
0 0 0 0 0 0 0 0 0 1 1 1 2 2 2 2 3 2 1 1 1 1 1 1 0 0 0 0 0 0 0 0 0 0 0 0 0 0 0 0 0 0 0 0 0 0 0 0 0
0 0 0 0 0 0 0 0 0 1 1 1 1 2 2 2 2 2 1 1 1 1 1 1 0 0 0 0 0 0 0 0 0 0 0 0 0 0 0 0 0 0 0 0 0 0 0 0 0
0 0 0 0 0 0 0 0 0 1 1 1 1 2 2 3 3 2 1 1 1 1 1 1 0 0 0 0 0 0 0 0 0 0 0 0 0 0 0 0 0 0 0 0 0 0 0 0 0
0 0 0 0 0 0 0 0 0 0 1 1 1 1 2 3 3 3 2 2 1 1 1 1 0 0 0 0 0 0 0 0 0 0 0 0 0 0 0 0 0 0 0 0 0 0 0 0 0
0 0 0 0 0 0 0 0 0 0 0 1 1 1 2 3 3 3 3 3 2 2 2 1 1 0 0 0 0 0 0 0 0 0 0 0 0 0 0 0 0 0 0 0 0 0 0 0 0
Wind_Speed
4 2 2 3 6 5 1 3 2 1 2 2 6 6 7 4 3 3 3 8 11 10 9 11 14 14 15 15 15 15 15 15 14 14 14 13 12 12 11 11 10 10 9 9 9 9 8 8 8
1 1 4 5 5 2 3 3 1 1 5 6 7 6 7 4 4 6 5 7 11 10 8 10 14 14 15 15 14 14 14 14 13 13 13 12 11 11 10 10 9 9 8 8 8 8 7 7 7
1 2 5 5 4 4 2 1 3 5 5 4 5 6 5 3 4 4 6 11 10 9 7 9 15 14 14 14 14 14 13 13 12 12 11 11 10 9 8 8 8 8 7 7 6 6 6 6 5
3 5 6 5 1 4 3 2 5 6 4 5 5 6 4 3 3 6 12 12 11 8 6 9 14 14 13 13 13 13 12 11 11 10 10 9 9 8 7 7 7 6 6 6 5 5 4 4 4
4 5 5 2 2 3 2 2 3 3 3 4 5 6 4 5 8 12 12 11 11 8 6 7 12 13 13 13 12 12 11 10 10 9 8 7 6 6 6 5 5 5 4 4 4 3 3 2 2
5 5 5 1 3 2 2 1 3 4 4 5 5 6 4 4 9 10 10 9 9 9 7 7 11 12 11 11 11 11 10 9 8 7 7 6 5 4 4 4 4 3 3 3 2 2 1 1 0
5 5 4 3 1 1 1 1 3 5 5 3 4 6 5 5 7 9 9 9 8 7 6 5 5 7 9 10 10 9 8 8 7 6 5 5 4 3 3 2 2 2 2 2 2 2 1 1 1
5 5 3 1 2 1 1 3 3 5 4 3 3 7 7 8 9 10 10 9 8 6 5 5 4 4 4 4 8 8 7 6 6 5 4 4 3 2 1 1 1 2 2 2 2 2 2 2 2
4 6 2 3 3 2 0 3 3 3 5 2 2 3 8 15 13 12 10 8 7 6 4 4 4 4 4 4 5 5 5 5 4 3 3 3 2 2 1 1 1 1 1 1 2 3 2 2 2
5 3 4 4 3 3 1 3 4 5 4 3 5 8 15 15 13 12 11 9 8 6 4 3 4 4 4 3 3 2 2 2 2 2 2 2 2 1 1 3 2 2 2 2 2 2 2 1 1
3 4 3 2 2 3 3 2 2 7 3 5 11 16 16 14 11 10 9 8 7 5 5 3 3 3 3 3 3 2 1 2 2 2 2 2 2 1 2 1 2 2 3 2 2 2 1 1 1
2 2 2 1 2 2 3 4 4 2 2 6 11 15 14 14 11 9 9 7 6 5 4 3 3 3 3 3 3 2 2 1 1 1 2 1 1 1 1 1 1 1 1 2 1 1 1 1 1
2 1 1 2 5 5 7 6 5 4 7 11 13 13 13 11 8 6 6 6 6 5 3 3 4 4 3 3 2 3 2 1 1 1 1 1 1 1 1 1 1 1 1 1 1 1 1 1 1
1 1 1 2 4 3 7 5 5 4 9 12 12 10 9 9 8 7 6 6 5 4 3 3 4 3 4 3 3 2 2 1 1 1 1 1 1 0 1 1 1 1 1 1 1 1 1 1 1
1 2 4 2 2 2 7 6 3 6 10 11 10 8 8 6 6 6 6 5 4 3 3 3 4 4 4 3 3 2 2 2 2 1 2 2 1 1 1 1 1 2 2 2 1 1 1 1 1
3 4 2 2 2 2 5 3 3 7 11 9 8 8 7 5 5 4 4 4 4 4 4 3 4 5 4 3 3 3 2 2 2 2 2 3 2 1 1 1 1 2 1 1 1 1 1 1 1
5 2 1 1 0 3 4 4 5 7 10 9 8 7 7 6 5 4 4 4 4 5 4 4 4 4 4 4 4 4 3 3 2 2 2 3 3 2 2 1 1 2 1 1 1 1 0 1 1
1 1 0 2 1 3 3 3 6 7 8 8 7 7 7 7 5 4 5 5 5 5 4 4 4 4 4 4 3 3 3 3 3 3 3 3 3 3 2 1 2 2 1 2 1 1 1 1 1
3 2 0 2 2 4 4 4 7 7 7 8 7 7 7 6 5 5 4 5 5 4 4 4 4 3 3 2 2 2 2 2 2 3 4 4 4 3 2 2 2 2 2 1 1 1 1 1 1
3 2 0 1 1 3 3 3 5 7 8 8 8 8 7 6 5 5 4 4 4 4 4 4 4 3 2 2 1 1 2 1 1 2 4 4 4 4 3 3 2 2 2 2 2 1 1 1 1
2 4 4 2 3 4 5 1 2 3 4 4 6 6 7 8 8 6 5 4 3 3 3 3 3 3 3 3 3 3 2 2 2 3 3 4 4 4 4 4 3 2 2 1 1 1 1 0 1
3 5 5 4 4 1 3 2 4 4 4 6 7 7 7 7 7 7 6 5 3 3 3 4 4 4 4 3 3 3 2 1 1 1 2 3 4 4 5 4 3 3 2 1 1 1 1 1 0
5 2 4 3 4 3 2 2 5 2 5 9 9 8 7 7 8 8 7 6 5 4 4 4 5 4 4 3 3 3 3 1 1 1 3 3 4 4 5 4 4 3 2 2 2 2 1 0 0
4 6 6 6 5 2 2 3 5 5 7 6 7 8 8 8 8 7 6 6 5 4 4 4 4 4 3 3 3 3 3 2 2 2 3 3 3 3 5 4 3 3 3 3 2 2 2 1 0
4 6 4 4 4 3 1 3 7 5 4 6 7 8 8 8 8 8 8 7 5 5 4 3 4 3 2 3 3 2 2 2 2 1 1 2 2 2 4 4 3 3 2 2 2 2 2 2 1
3 8 7 4 4 3 1 4 5 2 2 1 4 6 7 8 8 8 8 7 5 4 4 3 4 3 2 3 2 3 3 2 1 1 1 1 1 1 2 3 3 3 4 4 3 2 2 2 2
5 3 5 7 2 1 4 4 4 0 1 2 4 6 7 8 8 8 8 6 5 5 4 4 4 3 3 2 2 3 2 2 1 1 1 1 1 1 2 3 3 4 4 4 3 2 3 2 2
4 7 6 6 5 3 3 4 4 4 4 3 4 6 7 8 8 8 6 6 5 4 4 3 4 3 3 2 2 2 2 2 2 2 2 2 2 2 2 3 3 4 4 4 3 2 2 3 3
3 4 5 4 5 6 3 7 4 6 7 7 6 6 7 8 8 7 6 5 5 4 4 4 3 3 3 2 2 3 2 2 2 2 2 2 2 2 2 2 3 3 4 4 3 3 3 4 4
3 5 7 5 4 4 4 7 3 2 4 6 6 5 6 7 7 7 6 6 5 5 4 4 3 3 2 2 3 2 2 2 3 3 2 2 2 2 2 2 2 3 3 3 4 4 4 4 4
Wind_Direction
315 327 92 66 56 51 281 265 234 108 73 78 105 107 108 97 135 149 100 127 127 134 141 142 139 133 127 123 121 119 118 117 116 116 116 116 116 116 114 113 112 111 110 109 107 106 105 105 107
311 27 61 62 84 78 277 258 207 133 130 108 80 76 77 70 72 98 114 125 129 133 134 140 141 136 130 127 125 125 123 122 121 121 120 119 119 118 117 116 115 113 112 112 110 109 108 109 112
301 61 82 76 110 176 221 231 137 104 91 82 81 63 71 90 113 113 127 128 125 128 130 142 140 136 133 131 130 129 128 127 126 124 123 122 122 120 119 119 118 116 114 113 113 111 110 110 111
82 53 58 77 185 226 222 176 129 112 70 61 100 84 66 40 114 126 130 131 128 126 128 140 138 137 135 135 134 133 131 130 129 127 126 125 125 125 124 124 122 122 121 121 119 116 112 113 112
61 79 69 52 264 269 248 208 150 107 99 93 104 99 56 21 100 121 128 131 131 126 124 134 136 136 137 136 135 134 133 131 129 129 128 127 127 128 129 128 128 128 128 131 130 128 125 119 119
60 71 91 180 273 287 276 227 134 104 102 104 103 98 75 97 113 123 123 124 126 128 122 128 136 136 137 136 135 135 133 131 131 130 127 125 125 129 133 135 139 141 145 146 149 151 151 138 162
103 101 141 178 242 307 326 55 119 126 113 111 114 106 115 130 126 123 118 117 116 117 115 114 126 133 137 136 137 136 134 133 132 131 130 125 121 129 141 146 163 176 177 182 193 202 218 253 268
121 105 117 185 171 239 340 43 59 98 107 87 102 136 153 154 133 118 113 114 114 109 109 107 105 106 110 124 136 134 131 128 127 129 131 125 117 114 120 116 195 216 224 228 241 244 253 264 269
89 79 151 206 181 192 87 85 59 66 99 80 65 118 135 134 129 123 122 119 120 118 106 106 106 103 106 112 123 124 126 122 120 117 116 100 61 37 18 356 341 292 263 261 273 277 286 292 295
88 124 218 219 188 157 126 118 132 110 98 96 92 104 125 134 137 138 141 142 141 141 131 107 111 113 116 123 107 95 102 95 88 78 78 75 63 22 25 7 355 344 330 307 298 310 324 340 339
134 181 236 248 184 141 122 107 103 127 155 176 152 141 141 141 141 143 145 144 144 144 136 126 121 116 118 108 105 91 81 81 76 70 67 65 58 23 15 16 359 352 344 345 343 354 359 356 321
141 255 238 264 106 106 125 119 95 99 165 134 139 141 142 144 148 151 148 143 135 129 130 125 112 101 100 98 103 100 94 91 81 58 62 70 53 21 7 13 359 356 349 335 337 342 347 3 342
165 278 343 80 74 88 90 88 103 81 97 113 123 133 141 143 143 137 132 129 124 124 125 119 107 103 101 96 96 97 89 78 71 63 55 69 58 2 360 349 352 346 349 341 335 349 6 18 344
177 148 24 30 75 80 100 78 80 102 110 116 125 134 138 141 142 134 130 129 128 133 129 108 102 100 97 94 95 98 88 71 58 50 58 75 78 29 359 339 336 332 331 322 319 15 35 8 9
83 59 19 21 70 111 98 61 74 133 121 120 125 129 131 132 138 144 145 139 139 130 111 104 108 94 95 95 92 86 76 75 67 47 43 51 57 37 357 339 334 322 335 340 342 32 67 25 19
57 62 42 328 80 99 107 142 162 143 130 132 136 139 138 132 130 128 126 120 112 99 86 79 95 92 88 85 84 76 66 66 50 30 30 29 26 26 24 8 333 330 354 345 316 24 64 44 21
41 86 122 309 49 106 116 164 170 154 145 151 152 152 151 141 129 121 112 106 100 96 94 84 81 90 87 79 72 71 64 56 44 32 22 17 15 19 33 21 345 347 15 7 348 20 26 80 40
149 117 115 206 197 120 131 166 161 166 161 162 160 162 162 157 149 128 115 110 104 98 95 90 85 81 89 86 78 70 58 41 35 29 18 15 13 18 25 27 9 7 23 23 14 34 29 85 56
143 129 209 254 185 138 163 162 172 173 172 173 175 176 172 160 135 121 113 112 101 89 85 80 84 73 81 82 83 77 59 28 24 22 19 18 17 16 26 17 19 16 17 7 23 45 49 43 56
140 110 314 336 67 127 133 150 176 182 191 187 185 187 180 159 140 128 116 104 107 105 96 85 84 80 76 82 88 95 96 58 35 11 15 16 15 16 27 24 16 12 21 28 28 44 43 16 25
188 180 197 184 69 65 100 69 202 208 194 190 190 184 178 171 163 153 134 121 108 103 95 86 73 69 67 75 86 77 57 39 23 12 4 0 14 20 19 18 16 18 32 28 13 29 70 74 335
234 219 180 154 118 99 121 197 248 209 208 212 203 190 187 176 160 150 141 136 130 109 87 80 74 70 66 73 92 100 97 83 10 348 353 355 16 21 21 20 20 19 22 24 7 31 32 103 321
202 130 123 122 121 89 52 147 272 186 223 228 216 198 185 169 157 152 149 145 129 107 97 90 84 72 66 69 86 96 94 96 60 28 26 15 11 19 20 21 23 18 15 17 17 12 23 48 180
137 71 57 55 77 101 211 166 256 217 219 225 207 190 175 161 152 142 133 127 114 105 101 95 93 78 72 80 82 93 101 93 73 40 27 14 4 3 9 18 24 18 11 9 8 5 7 354 341
92 87 39 9 20 250 227 180 242 243 229 217 197 182 168 161 155 148 145 139 136 134 130 118 104 86 75 91 93 95 96 89 82 54 29 19 4 353 349 5 12 9 4 6 10 16 6 354 343
152 137 155 186 209 266 302 229 252 277 281 202 169 158 157 160 156 153 149 147 150 144 131 121 112 94 77 80 82 82 83 81 62 46 38 8 341 321 336 357 10 9 10 15 17 17 359 359 349
134 148 154 128 139 197 267 272 293 121 51 105 133 147 158 159 155 150 148 149 150 144 135 131 119 102 89 80 77 76 79 81 61 32 25 6 347 345 6 17 17 14 15 15 17 16 356 355 350
126 139 104 120 149 226 274 260 243 221 211 181 165 162 155 148 147 146 148 146 145 141 129 116 113 113 101 89 83 89 71 62 50 41 23 10 360 8 23 22 21 19 16 15 19 4 350 8 352
111 102 106 114 150 159 230 262 234 209 195 188 184 173 157 155 157 153 149 143 139 130 124 118 114 109 103 98 89 74 52 39 37 36 17 7 5 9 17 14 23 18 14 11 16 6 2 7 356
151 158 147 152 195 174 184 261 303 214 180 171 170 163 152 152 152 146 142 139 140 141 137 135 132 127 126 114 95 74 54 46 40 27 9 13 14 6 8 12 23 17 14 14 15 12 10 4 355